�������l�o���
Date,Time,MP-1(��Sv/h),MP-2(��Sv/h),MP-3(��Sv/h),MP-4(��Sv/h),MP-5(��Sv/h),MP-6(��Sv/h),MP-7(��Sv/h),MP-8(��Sv/h),����,����(m/s),���J
2020/01/09,00:00,0.688,0.976,0.660,1.230,0.855,0.400,0.700,0.664,��쓌,4.5,��
2020/01/09,00:10,0.689,0.977,0.660,1.227,0.854,0.401,0.700,0.663,��쓌,4.1,��
2020/01/09,00:20,0.689,0.977,0.660,1.228,0.854,0.401,0.699,0.667,��쐼,3.6,��
2020/01/09,00:30,0.693,0.978,0.662,1.228,0.855,0.402,0.698,0.664,��,5.0,��
2020/01/09,00:40,0.690,0.977,0.659,1.228,0.857,0.401,0.698,0.664,��,6.6,��
2020/01/09,00:50,0.688,0.976,0.659,1.229,0.856,0.402,0.698,0.665,��쐼,6.3,��
2020/01/09,01:00,0.690,0.978,0.660,1.229,0.856,0.400,0.699,0.664,��쐼,5.6,��
2020/01/09,01:10,0.688,0.977,0.661,1.226,0.857,0.401,0.700,0.664,�쐼,5.0,��
2020/01/09,01:20,0.689,0.978,0.662,1.230,0.857,0.403,0.698,0.664,�쐼,3.9,��
2020/01/09,01:30,0.689,0.978,0.660,1.232,0.856,0.403,0.697,0.665,�쐼,3.4,�L
2020/01/09,01:40,0.690,0.977,0.662,1.229,0.857,0.402,0.701,0.665,��,2.9,�L
2020/01/09,01:50,0.689,0.980,0.663,1.230,0.854,0.404,0.699,0.666,���k��,4.9,�L
2020/01/09,02:00,0.690,0.976,0.664,1.232,0.853,0.405,0.698,0.665,���k��,3.4,�L
2020/01/09,02:10,0.691,0.977,0.662,1.229,0.854,0.405,0.699,0.665,�k��,3.9,�L
2020/01/09,02:20,0.690,0.977,0.661,1.230,0.854,0.406,0.697,0.664,�k��,4.1,�L
2020/01/09,02:30,0.689,0.977,0.663,1.230,0.856,0.404,0.696,0.664,�k��,4.6,��
2020/01/09,02:40,0.689,0.975,0.661,1.228,0.854,0.405,0.698,0.664,�k��,6.6,�L
2020/01/09,02:50,0.687,0.976,0.662,1.227,0.854,0.403,0.699,0.664,�k��,6.9,��
2020/01/09,03:00,0.688,0.974,0.658,1.227,0.853,0.403,0.699,0.665,�k�k��,5.5,�L
2020/01/09,03:10,0.689,0.975,0.660,1.227,0.854,0.403,0.697,0.664,�k�k��,5.2,��
2020/01/09,03:20,0.686,0.974,0.658,1.227,0.852,0.401,0.699,0.664,�k,6.7,��
2020/01/09,03:30,0.686,0.976,0.659,1.227,0.853,0.400,0.698,0.665,�k�k��,6.6,�L
2020/01/09,03:40,0.686,0.976,0.659,1.225,0.853,0.402,0.698,0.665,�k�k��,6.7,��
2020/01/09,03:50,0.688,0.973,0.657,1.228,0.851,0.399,0.699,0.664,�k�k��,6.0,��
2020/01/09,04:00,0.685,0.972,0.659,1.223,0.851,0.401,0.697,0.662,�k,6.3,��
2020/01/09,04:10,0.688,0.971,0.656,1.227,0.850,0.399,0.696,0.665,�k,7.2,��
2020/01/09,04:20,0.686,0.973,0.658,1.224,0.853,0.399,0.697,0.663,�k,6.0,��
2020/01/09,04:30,0.686,0.973,0.657,1.224,0.853,0.400,0.697,0.664,�k,7.1,��
2020/01/09,04:40,0.686,0.972,0.657,1.226,0.854,0.398,0.698,0.663,�k,7.4,��
2020/01/09,04:50,0.685,0.975,0.657,1.226,0.853,0.400,0.698,0.663,�k,5.8,��
2020/01/09,05:00,0.686,0.975,0.659,1.226,0.853,0.398,0.697,0.663,�k,5.2,��
2020/01/09,05:10,0.686,0.973,0.657,1.224,0.853,0.399,0.696,0.662,�k�k��,4.6,��
2020/01/09,05:20,0.685,0.973,0.657,1.225,0.852,0.399,0.696,0.662,�k�k��,2.8,��
2020/01/09,05:30,0.685,0.976,0.658,1.225,0.853,0.398,0.699,0.662,�k��,2.9,�L
2020/01/09,05:40,0.684,0.975,0.658,1.225,0.853,0.397,0.698,0.662,�k��,3.1,��
2020/01/09,05:50,0.686,0.976,0.657,1.226,0.852,0.399,0.698,0.663,�k��,2.7,��
2020/01/09,06:00,0.686,0.974,0.657,1.224,0.852,0.397,0.697,0.663,�k��,3.8,��
2020/01/09,06:10,0.684,0.975,0.658,1.224,0.852,0.398,0.695,0.663,�k�k��,6.3,��
2020/01/09,06:20,0.688,0.973,0.656,1.224,0.852,0.399,0.697,0.664,�k��,4.9,��
2020/01/09,06:30,0.686,0.972,0.657,1.226,0.853,0.398,0.696,0.663,�k�k��,5.0,��
2020/01/09,06:40,0.686,0.973,0.658,1.226,0.854,0.398,0.698,0.663,�k�k��,6.0,��
2020/01/09,06:50,0.685,0.973,0.657,1.224,0.850,0.398,0.698,0.663,�k��,5.6,��
2020/01/09,07:00,0.684,0.977,0.658,1.227,0.853,0.398,0.696,0.663,�k�k��,5.8,��
2020/01/09,07:10,0.686,0.974,0.655,1.226,0.853,0.398,0.698,0.662,�k�k��,7.1,��
2020/01/09,07:20,0.686,0.974,0.657,1.226,0.852,0.399,0.696,0.662,�k�k��,6.6,��
2020/01/09,07:30,0.684,0.973,0.657,1.228,0.855,0.398,0.698,0.664,�k�k��,6.6,��
2020/01/09,07:40,0.684,0.973,0.657,1.226,0.852,0.399,0.696,0.662,�k�k��,7.4,��
2020/01/09,07:50,0.684,0.975,0.656,1.227,0.854,0.397,0.697,0.663,�k�k��,8.0,��
2020/01/09,08:00,0.684,0.975,0.656,1.228,0.855,0.398,0.697,0.662,�k�k��,7.8,��
2020/01/09,08:10,0.685,0.976,0.656,1.229,0.854,0.398,0.698,0.661,�k�k��,8.0,��
2020/01/09,08:20,0.684,0.974,0.655,1.226,0.854,0.400,0.698,0.663,�k,6.3,��
2020/01/09,08:30,0.685,0.976,0.657,1.226,0.855,0.398,0.697,0.662,�k,6.3,��
2020/01/09,08:40,0.684,0.973,0.654,1.226,0.854,0.398,0.698,0.662,�k,5.8,��
2020/01/09,08:50,0.684,0.973,0.652,1.225,0.854,0.398,0.698,0.661,�k,7.5,��
2020/01/09,09:00,0.685,0.975,0.651,1.225,0.854,0.399,0.700,0.663,�k,6.6,��
2020/01/09,09:10,0.685,0.976,0.647,1.229,0.855,0.398,0.698,0.663,�k,7.7,��
2020/01/09,09:20,0.684,0.975,0.645,1.229,0.854,0.397,0.697,0.663,�k,7.7,��
2020/01/09,09:30,0.687,0.975,0.646,1.229,0.856,0.398,0.697,0.664,�k,7.5,��
2020/01/09,09:40,0.687,0.974,0.647,1.230,0.856,0.398,0.697,0.664,�k,7.2,�L
2020/01/09,09:50,0.685,0.974,0.646,1.229,0.855,0.396,0.696,0.665,�k,7.4,��
2020/01/09,10:00,0.687,0.974,0.647,1.227,0.856,0.398,0.697,0.664,�k,8.0,��
2020/01/09,10:10,0.686,0.974,0.648,1.228,0.858,0.398,0.698,0.663,�k,8.3,��
2020/01/09,10:20,0.687,0.973,0.647,1.227,0.858,0.396,0.696,0.664,�k�k��,7.2,��
2020/01/09,10:30,0.688,0.974,0.648,1.228,0.859,0.398,0.697,0.664,�k�k��,5.8,��
2020/01/09,10:40,0.687,0.974,0.647,1.226,0.859,0.398,0.695,0.663,�k,6.0,��
2020/01/09,10:50,0.689,0.974,0.647,1.227,0.857,0.398,0.697,0.666,�k�k��,7.1,��
2020/01/09,11:00,0.688,0.975,0.647,1.228,0.858,0.397,0.697,0.664,�k�k��,6.9,��
2020/01/09,11:10,0.687,0.980,0.650,1.228,0.860,0.399,0.697,0.663,�k�k��,6.9,��
2020/01/09,11:20,0.687,0.979,0.647,1.230,0.860,0.399,0.696,0.666,�k,6.4,��
2020/01/09,11:30,0.689,0.975,0.649,1.229,0.859,0.397,0.695,0.666,�k�k��,6.0,��
2020/01/09,11:40,0.688,0.979,0.650,1.230,0.863,0.399,0.697,0.665,�k,5.8,��
2020/01/09,11:50,0.689,0.977,0.646,1.231,0.860,0.399,0.697,0.665,�k,6.0,��
2020/01/09,12:00,0.689,0.978,0.654,1.230,0.860,0.399,0.697,0.665,�k�k��,6.3,�L
2020/01/09,12:10,0.688,0.978,0.657,1.231,0.861,0.396,0.697,0.665,�k�k��,5.8,�L
2020/01/09,12:20,0.690,0.979,0.655,1.231,0.859,0.399,0.699,0.666,�k,6.0,��
2020/01/09,12:30,0.690,0.981,0.655,1.230,0.860,0.397,0.698,0.664,�k,5.5,�L
2020/01/09,12:40,0.690,0.982,0.655,1.230,0.862,0.398,0.698,0.665,�k�k��,3.5,��
2020/01/09,12:50,0.691,0.980,0.656,1.231,0.863,0.398,0.697,0.665,�k�k��,2.9,��
2020/01/09,13:00,0.690,0.981,0.655,1.230,0.862,0.399,0.697,0.666,�k�k��,2.8,��
2020/01/09,13:10,0.690,0.982,0.650,1.230,0.862,0.398,0.699,0.666,�k��,2.1,��
2020/01/09,13:20,0.691,0.981,0.653,1.233,0.863,0.400,0.700,0.666,�k�k��,1.5,��
2020/01/09,13:30,0.691,0.979,0.654,1.233,0.863,0.398,0.698,0.665,�k�k��,2.6,��
2020/01/09,13:40,0.690,0.981,0.659,1.232,0.863,0.399,0.698,0.665,�k��,2.3,��
2020/01/09,13:50,0.691,0.981,0.659,1.232,0.863,0.400,0.698,0.666,�k��,2.9,��
2020/01/09,14:00,0.690,0.979,0.659,1.233,0.862,0.401,0.699,0.666,�k��,2.4,��
2020/01/09,14:10,0.690,0.980,0.658,1.231,0.863,0.399,0.699,0.665,�k�k��,3.9,��
2020/01/09,14:20,0.688,0.980,0.656,1.231,0.864,0.399,0.699,0.663,�k�k��,5.0,��
2020/01/09,14:30,0.689,0.980,0.659,1.232,0.863,0.398,0.700,0.666,�k�k��,4.9,��
2020/01/09,14:40,0.690,0.979,0.658,1.231,0.860,0.400,0.699,0.664,�k,4.1,��
2020/01/09,14:50,0.692,0.981,0.658,1.231,0.865,0.400,0.697,0.667,�k,4.4,�L
2020/01/09,15:00,0.692,0.983,0.658,1.233,0.864,0.400,0.698,0.666,�k,4.3,�L
2020/01/09,15:10,0.692,0.981,0.658,1.231,0.862,0.399,0.697,0.666,�k�k��,3.3,�L
2020/01/09,15:20,0.693,0.981,0.657,1.231,0.865,0.399,0.699,0.667,�k�k��,4.9,�L
2020/01/09,15:30,0.692,0.983,0.659,1.231,0.864,0.400,0.699,0.664,�k�k��,5.0,��
2020/01/09,15:40,0.692,0.982,0.658,1.233,0.865,0.400,0.698,0.665,�k,4.7,��
2020/01/09,15:50,0.691,0.984,0.657,1.234,0.863,0.400,0.698,0.666,�k,4.4,��
2020/01/09,16:00,0.692,0.984,0.658,1.233,0.863,0.400,0.700,0.667,�k,4.4,��
2020/01/09,16:10,0.692,0.982,0.659,1.234,0.862,0.400,0.699,0.666,�k,4.2,��
2020/01/09,16:20,0.692,0.983,0.658,1.233,0.863,0.399,0.699,0.665,�k,4.5,��
2020/01/09,16:30,0.695,0.984,0.657,1.234,0.864,0.399,0.699,0.666,�k,3.8,��
2020/01/09,16:40,0.692,0.986,0.658,1.233,0.865,0.400,0.701,0.666,�k,3.1,��
2020/01/09,16:50,0.691,0.985,0.659,1.233,0.862,0.400,0.700,0.665,�k�k��,2.2,��
2020/01/09,17:00,0.691,0.984,0.659,1.233,0.863,0.400,0.700,0.665,�k��,1.6,��
2020/01/09,17:10,0.690,0.986,0.657,1.231,0.863,0.400,0.699,0.666,���k��,1.2,��
2020/01/09,17:20,0.691,0.985,0.659,1.233,0.864,0.400,0.701,0.668,���k��,1.6,��
2020/01/09,17:30,0.694,0.983,0.659,1.234,0.863,0.398,0.701,0.664,�k��,2.8,��
2020/01/09,17:40,0.692,0.981,0.660,1.232,0.864,0.400,0.699,0.667,�k��,2.7,��
2020/01/09,17:50,0.689,0.985,0.657,1.233,0.864,0.399,0.700,0.664,��,2.5,��
2020/01/09,18:00,0.692,0.985,0.659,1.231,0.864,0.400,0.699,0.664,��,3.0,��
2020/01/09,18:10,0.689,0.985,0.658,1.233,0.861,0.398,0.700,0.665,��,2.6,��
2020/01/09,18:20,0.691,0.983,0.658,1.232,0.863,0.399,0.698,0.665,���k��,3.5,��
2020/01/09,18:30,0.690,0.983,0.659,1.234,0.863,0.399,0.700,0.666,��,4.9,��
2020/01/09,18:40,0.689,0.985,0.660,1.233,0.864,0.399,0.700,0.666,��,4.6,��
2020/01/09,18:50,0.689,0.984,0.659,1.233,0.861,0.399,0.699,0.665,���k��,4.9,��
2020/01/09,19:00,0.691,0.984,0.659,1.232,0.866,0.398,0.699,0.665,���k��,4.9,��
2020/01/09,19:10,0.688,0.985,0.657,1.234,0.862,0.399,0.700,0.666,���k��,4.5,��
2020/01/09,19:20,0.691,0.983,0.658,1.235,0.864,0.398,0.699,0.665,���k��,3.8,��
2020/01/09,19:30,0.690,0.984,0.660,1.233,0.865,0.399,0.699,0.665,���k��,4.1,��
2020/01/09,19:40,0.691,0.985,0.658,1.234,0.864,0.398,0.699,0.665,���k��,4.3,��
2020/01/09,19:50,0.689,0.984,0.657,1.235,0.861,0.399,0.701,0.664,���k��,4.9,��
2020/01/09,20:00,0.690,0.980,0.659,1.235,0.862,0.398,0.700,0.665,���k��,3.5,��
2020/01/09,20:10,0.689,0.984,0.658,1.237,0.864,0.399,0.699,0.666,���k��,4.1,��
2020/01/09,20:20,0.688,0.984,0.656,1.233,0.864,0.399,0.699,0.664,��,4.5,��
2020/01/09,20:30,0.687,0.984,0.658,1.233,0.864,0.398,0.698,0.664,��,2.3,��
2020/01/09,20:40,0.688,0.986,0.656,1.232,0.862,0.398,0.698,0.665,���k��,3.8,��
2020/01/09,20:50,0.689,0.987,0.658,1.232,0.863,0.399,0.699,0.665,���k��,5.2,��
2020/01/09,21:00,0.690,0.984,0.659,1.233,0.866,0.399,0.698,0.666,�k��,6.3,��
2020/01/09,21:10,0.689,0.984,0.660,1.234,0.863,0.399,0.699,0.666,�k��,7.1,��
2020/01/09,21:20,0.690,0.984,0.660,1.234,0.866,0.399,0.698,0.665,�k�k��,6.3,��
2020/01/09,21:30,0.689,0.985,0.658,1.233,0.864,0.400,0.699,0.666,�k�k��,6.7,��
2020/01/09,21:40,0.690,0.987,0.658,1.235,0.865,0.398,0.699,0.665,�k�k��,6.3,��
2020/01/09,21:50,0.690,0.983,0.658,1.236,0.864,0.399,0.701,0.666,�k��,6.3,��
2020/01/09,22:00,0.689,0.985,0.659,1.235,0.865,0.396,0.700,0.667,�k�k��,6.9,��
2020/01/09,22:10,0.689,0.985,0.658,1.233,0.864,0.398,0.700,0.665,�k�k��,6.3,��
2020/01/09,22:20,0.691,0.983,0.660,1.233,0.863,0.398,0.700,0.666,�k�k��,6.4,��
2020/01/09,22:30,0.688,0.986,0.661,1.236,0.864,0.398,0.701,0.664,�k�k��,5.2,��
2020/01/09,22:40,0.690,0.986,0.660,1.236,0.863,0.398,0.700,0.667,�k�k��,5.2,��
2020/01/09,22:50,0.690,0.983,0.658,1.235,0.865,0.400,0.701,0.665,�k��,5.3,��
2020/01/09,23:00,0.689,0.984,0.659,1.235,0.864,0.399,0.701,0.666,�k��,6.0,��
2020/01/09,23:10,0.690,0.984,0.659,1.235,0.863,0.398,0.700,0.667,�k��,6.0,��
2020/01/09,23:20,0.689,0.985,0.659,1.236,0.865,0.400,0.700,0.666,�k��,6.3,��
2020/01/09,23:30,0.690,0.986,0.658,1.236,0.863,0.398,0.700,0.666,�k��,5.6,��
2020/01/09,23:40,0.689,0.987,0.657,1.236,0.865,0.400,0.701,0.665,�k��,6.0,��
2020/01/09,23:50,0.691,0.988,0.658,1.235,0.866,0.399,0.701,0.666,�k��,6.4,��
